Time,TemperatureF,DewpointF,PressureIn,WindDirection,WindDirectionDegrees,WindSpeedMPH,WindSpeedGustMPH,Humidity,HourlyPrecipIn,Conditions,Clouds,dailyrainin,SolarRadiationWatts/m^2,SoftwareType,DateUTC
2013-09-10 00:00:00,57.0,57.0,-100.00,North,351,3.0,5.0,100,-99.99,,,0.00,0.000000,,2013-09-10 07:00:00,
2013-09-10 00:52:00,57.0,57.0,-100.00,North,351,3.0,5.0,100,-99.99,,,0.00,0.000000,,2013-09-10 07:52:00,
2013-09-10 01:00:00,57.0,57.0,-100.00,NNE,33,3.0,5.0,100,-99.99,,,0.00,0.000000,,2013-09-10 08:00:00,
2013-09-10 01:42:00,57.0,57.0,-100.00,NNE,33,3.0,5.0,100,-99.99,,,0.00,0.000000,,2013-09-10 08:42:00,
2013-09-10 01:52:00,57.0,57.0,-100.00,NNE,33,3.0,5.0,100,-99.99,,,0.00,0.000000,,2013-09-10 08:52:00,
2013-09-10 02:00:00,57.0,57.0,-100.00,NE,36,2.0,4.0,100,-99.99,,,0.00,0.000000,,2013-09-10 09:00:00,
2013-09-10 02:43:00,57.0,57.0,-100.00,NE,36,2.0,4.0,100,-99.99,,,0.00,0.000000,,2013-09-10 09:43:00,
2013-09-10 02:54:00,57.0,57.0,-100.00,NE,36,2.0,4.0,100,-99.99,,,0.00,0.000000,,2013-09-10 09:54:00,
2013-09-10 03:00:00,56.0,56.0,-100.00,North,349,2.0,4.0,100,-99.99,,,0.00,0.000000,,2013-09-10 10:00:00,
2013-09-10 03:42:00,56.0,56.0,-100.00,North,349,2.0,4.0,100,-99.99,,,0.00,0.000000,,2013-09-10 10:42:00,
2013-09-10 03:53:00,56.0,56.0,-100.00,North,349,2.0,4.0,100,-99.99,,,0.00,0.000000,,2013-09-10 10:53:00,
2013-09-10 04:00:00,56.0,56.0,-100.00,North,9,2.0,5.0,100,-99.99,,,0.00,0.000000,,2013-09-10 11:00:00,
2013-09-10 04:42:00,56.0,56.0,-100.00,North,9,2.0,5.0,100,-99.99,,,0.00,0.000000,,2013-09-10 11:42:00,
2013-09-10 04:52:00,56.0,56.0,-100.00,North,9,2.0,5.0,100,-99.99,,,0.00,0.000000,,2013-09-10 11:52:00,
2013-09-10 05:00:00,56.0,56.0,-100.00,NNE,32,2.0,5.0,100,-99.99,,,0.00,0.000000,,2013-09-10 12:00:00,
2013-09-10 05:42:00,56.0,56.0,-100.00,NNE,32,2.0,5.0,100,-99.99,,,0.00,0.000000,,2013-09-10 12:42:00,
2013-09-10 05:52:00,56.0,56.0,-100.00,NNE,32,2.0,5.0,100,-99.99,,,0.00,0.000000,,2013-09-10 12:52:00,
2013-09-10 06:00:00,56.0,56.0,-100.00,NNE,24,2.0,7.0,100,-99.99,,,0.00,0.000000,,2013-09-10 13:00:00,
2013-09-10 06:42:00,56.0,56.0,-100.00,NNE,24,2.0,7.0,100,-99.99,,,0.00,0.000000,,2013-09-10 13:42:00,
2013-09-10 06:52:00,56.0,56.0,-100.00,NNE,24,2.0,7.0,100,-99.99,,,0.00,0.000000,,2013-09-10 13:52:00,
2013-09-10 07:00:00,56.0,56.0,-100.00,NNE,17,3.0,5.0,100,-99.99,,,0.00,4.650000,,2013-09-10 14:00:00,
2013-09-10 07:42:00,56.0,56.0,-100.00,NNE,17,3.0,5.0,100,-99.99,,,0.00,4.650000,,2013-09-10 14:42:00,
2013-09-10 07:52:00,56.0,56.0,-100.00,NNE,17,3.0,5.0,100,-99.99,,,0.00,4.650000,,2013-09-10 14:52:00,
2013-09-10 08:00:00,58.0,58.0,-100.00,NNE,16,3.0,7.0,100,-99.99,,,0.00,152.360001,,2013-09-10 15:00:00,
2013-09-10 08:43:00,58.0,58.0,-100.00,NNE,16,3.0,7.0,100,-99.99,,,0.00,152.360001,,2013-09-10 15:43:00,
2013-09-10 08:54:00,58.0,58.0,-100.00,NNE,16,3.0,7.0,100,-99.99,,,0.00,152.360001,,2013-09-10 15:54:00,
2013-09-10 09:00:00,63.0,63.0,-100.00,North,1,4.0,7.0,99,-99.99,,,0.00,319.839996,,2013-09-10 16:00:00,
2013-09-10 09:43:00,63.0,63.0,-100.00,North,1,4.0,7.0,99,-99.99,,,0.00,319.839996,,2013-09-10 16:43:00,
2013-09-10 09:53:00,63.0,63.0,-100.00,North,1,4.0,7.0,99,-99.99,,,0.00,319.839996,,2013-09-10 16:53:00,
2013-09-10 10:00:00,62.0,59.0,-100.00,North,2,6.0,11.0,90,-99.99,,,0.00,503.700012,,2013-09-10 17:00:00,
2013-09-10 10:43:00,62.0,59.0,-100.00,North,2,6.0,11.0,90,-99.99,,,0.00,503.700012,,2013-09-10 17:43:00,
2013-09-10 10:52:00,62.0,59.0,-100.00,North,2,6.0,11.0,90,-99.99,,,0.00,503.700012,,2013-09-10 17:52:00,
2013-09-10 11:00:00,64.0,59.0,-100.00,North,3,6.0,13.0,82,-99.99,,,0.00,661.179993,,2013-09-10 18:00:00,
2013-09-10 11:43:00,64.0,59.0,-100.00,North,3,6.0,13.0,82,-99.99,,,0.00,661.179993,,2013-09-10 18:43:00,
2013-09-10 11:52:00,64.0,59.0,-100.00,North,3,6.0,13.0,82,-99.99,,,0.00,661.179993,,2013-09-10 18:52:00,
2013-09-10 12:00:00,64.0,57.0,-100.00,NNW,333,9.0,14.0,79,-99.99,,,0.00,771.700012,,2013-09-10 19:00:00,
2013-09-10 12:42:00,64.0,57.0,-100.00,NNW,333,9.0,14.0,79,-99.99,,,0.00,771.700012,,2013-09-10 19:42:00,
2013-09-10 12:52:00,64.0,57.0,-100.00,NNW,333,9.0,14.0,79,-99.99,,,0.00,771.700012,,2013-09-10 19:52:00,
2013-09-10 13:00:00,63.0,57.0,-100.00,NNW,337,10.0,18.0,82,-99.99,,,0.00,825.859985,,2013-09-10 20:00:00,
2013-09-10 13:42:00,63.0,57.0,-100.00,NNW,337,10.0,18.0,82,-99.99,,,0.00,825.859985,,2013-09-10 20:42:00,
2013-09-10 13:52:00,63.0,57.0,-100.00,NNW,337,10.0,18.0,82,-99.99,,,0.00,825.859985,,2013-09-10 20:52:00,
2013-09-10 14:00:00,64.0,58.0,-100.00,NNW,344,8.0,16.0,81,-99.99,,,0.00,821.909973,,2013-09-10 21:00:00,
2013-09-10 14:44:00,64.0,58.0,-100.00,NNW,344,8.0,16.0,81,-99.99,,,0.00,821.909973,,2013-09-10 21:44:00,
2013-09-10 14:54:00,64.0,58.0,-100.00,NNW,344,8.0,16.0,81,-99.99,,,0.00,821.909973,,2013-09-10 21:54:00,
2013-09-10 15:00:00,64.0,57.0,-100.00,NNW,331,10.0,17.0,78,-99.99,,,0.00,758.679993,,2013-09-10 22:00:00,
2013-09-10 15:42:00,64.0,57.0,-100.00,NNW,331,10.0,17.0,78,-99.99,,,0.00,758.679993,,2013-09-10 22:42:00,
2013-09-10 15:54:00,64.0,57.0,-100.00,NNW,331,10.0,17.0,78,-99.99,,,0.00,758.679993,,2013-09-10 22:54:00,
2013-09-10 16:00:00,65.0,57.0,-100.00,NNW,329,7.0,13.0,75,-99.99,,,0.00,638.159973,,2013-09-10 23:00:00,
2013-09-10 16:42:00,65.0,57.0,-100.00,NNW,329,7.0,13.0,75,-99.99,,,0.00,638.159973,,2013-09-10 23:42:00,
2013-09-10 16:53:00,65.0,57.0,-100.00,NNW,329,7.0,13.0,75,-99.99,,,0.00,638.159973,,2013-09-10 23:53:00,
2013-09-10 17:00:00,66.0,60.0,-100.00,NNW,335,3.0,8.0,79,-99.99,,,0.00,472.429993,,2013-09-11 00:00:00,
2013-09-10 17:42:00,66.0,60.0,-100.00,NNW,335,3.0,8.0,79,-99.99,,,0.00,472.429993,,2013-09-11 00:42:00,
2013-09-10 17:52:00,66.0,60.0,-100.00,NNW,335,3.0,8.0,79,-99.99,,,0.00,472.429993,,2013-09-11 00:52:00,
2013-09-10 18:00:00,63.0,56.0,-100.00,SSW,201,4.0,9.0,77,-99.99,,,0.00,281.950012,,2013-09-11 01:00:00,
2013-09-10 18:42:00,63.0,56.0,-100.00,SSW,201,4.0,9.0,77,-99.99,,,0.00,281.950012,,2013-09-11 01:42:00,
2013-09-10 18:53:00,63.0,56.0,-100.00,SSW,201,4.0,9.0,77,-99.99,,,0.00,281.950012,,2013-09-11 01:53:00,
2013-09-10 20:00:00,54.0,54.0,-100.00,SW,222,3.0,11.0,100,-99.99,,,0.00,0.350000,,2013-09-11 03:00:00,
2013-09-10 20:44:00,54.0,54.0,-100.00,SW,222,3.0,11.0,100,-99.99,,,0.00,0.350000,,2013-09-11 03:44:00,
2013-09-10 20:54:00,54.0,54.0,-100.00,SW,222,3.0,11.0,100,-99.99,,,0.00,0.350000,,2013-09-11 03:54:00,
2013-09-10 21:00:00,54.0,54.0,-100.00,SSW,194,2.0,5.0,100,-99.99,,,0.00,0.000000,,2013-09-11 04:00:00,
2013-09-10 21:43:00,54.0,54.0,-100.00,SSW,194,2.0,5.0,100,-99.99,,,0.00,0.000000,,2013-09-11 04:43:00,
2013-09-10 21:54:00,54.0,54.0,-100.00,SSW,194,2.0,5.0,100,-99.99,,,0.00,0.000000,,2013-09-11 04:54:00,
2013-09-10 22:00:00,54.0,54.0,-100.00,SSW,213,1.0,4.0,100,-99.99,,,0.00,0.000000,,2013-09-11 05:00:00,
2013-09-10 22:42:00,54.0,54.0,-100.00,SSW,213,1.0,4.0,100,-99.99,,,0.00,0.000000,,2013-09-11 05:42:00,
2013-09-10 22:53:00,54.0,54.0,-100.00,SSW,213,1.0,4.0,100,-99.99,,,0.00,0.000000,,2013-09-11 05:53:00,
2013-09-10 23:00:00,55.0,55.0,-100.00,SW,223,2.0,5.0,100,-99.99,,,0.00,0.000000,,2013-09-11 06:00:00,
2013-09-10 23:42:00,55.0,55.0,-100.00,SW,223,2.0,5.0,100,-99.99,,,0.00,0.000000,,2013-09-11 06:42:00,
2013-09-10 23:52:00,55.0,55.0,-100.00,SW,223,2.0,5.0,100,-99.99,,,0.00,0.000000,,2013-09-11 06:52:00,